Theta_e
358 365 365 364 365 365 366 365 364 363 361 360 360 361 361 360 361 362 362 363 363 362 360 358 358 355 354 354 355 356 357 358 357 359 357 354 350 349 347 344 343 341 343
362 365 363 363 365 364 366 366 364 362 361 359 360 361 361 360 361 362 363 364 363 362 359 355 353 351 351 351 354 356 358 358 359 358 355 352 350 348 346 343 346 342 341
361 364 362 363 364 364 365 365 364 362 360 360 361 361 361 361 362 362 364 362 362 360 357 355 352 350 350 350 353 357 358 358 360 357 355 354 351 349 347 345 343 342 340
362 363 360 362 364 364 364 364 363 363 362 362 361 361 361 362 362 363 363 362 360 357 357 354 351 349 349 350 352 354 357 359 360 358 356 354 351 349 347 344 342 341 340
362 361 362 362 362 363 363 363 363 363 363 363 362 361 361 362 362 363 362 362 360 357 356 353 350 350 349 350 351 352 354 358 362 359 359 357 357 349 347 344 342 339 338
359 360 361 361 361 362 362 362 363 363 363 363 363 362 362 362 362 362 362 363 362 358 356 353 350 348 347 348 348 349 351 354 357 360 360 357 356 347 347 343 340 339 337
362 361 359 362 361 360 360 361 362 362 362 362 362 362 362 362 362 361 362 361 361 358 356 353 350 349 346 345 345 347 349 352 356 355 358 359 356 351 347 343 341 339 337
358 359 362 361 360 360 360 360 361 361 361 361 361 361 361 361 360 360 360 360 359 359 357 354 352 349 348 346 347 348 349 350 354 353 355 358 351 350 347 344 341 339 337
360 359 362 360 361 359 359 359 359 360 360 360 360 360 360 360 360 359 360 360 359 358 357 355 353 350 348 347 347 348 349 351 353 355 354 356 350 348 347 344 342 340 337
357 358 361 362 360 360 358 359 359 359 359 360 360 360 359 359 359 359 358 358 358 357 356 355 353 351 349 348 347 348 348 350 353 354 354 356 351 348 348 345 343 340 337
344 349 355 358 361 361 359 360 359 358 358 358 359 359 358 350 351 352 354 357 358 358 357 356 355 352 350 349 349 349 345 347 350 354 354 352 351 349 349 346 343 340 337
327 332 341 350 356 362 360 362 363 359 357 353 351 352 353 349 349 350 353 357 358 358 358 357 356 353 348 337 339 345 338 346 349 353 355 352 351 350 350 348 344 341 338
321 323 331 345 357 361 361 362 361 359 359 358 357 355 355 348 349 350 349 352 354 354 351 352 349 347 343 339 338 337 340 345 348 351 354 352 352 351 351 348 345 342 340
325 326 326 333 350 359 360 362 363 361 360 359 359 360 357 353 352 351 348 346 348 348 349 347 343 345 345 344 341 337 338 341 345 350 354 352 352 352 352 350 346 343 340
328 330 330 332 331 346 357 355 356 358 357 360 360 360 358 354 353 352 350 349 348 347 346 347 346 344 346 345 342 338 335 337 345 351 354 353 351 352 353 351 347 344 342
329 330 332 332 333 331 347 356 354 353 354 356 357 359 360 358 355 353 352 349 350 348 346 346 346 345 344 343 341 340 337 337 347 355 354 355 351 351 353 352 349 345 344
328 331 332 332 333 336 337 343 350 350 349 350 352 359 360 360 360 359 354 351 349 350 350 348 348 348 345 342 342 341 339 338 347 355 355 353 353 351 353 353 351 348 345
329 329 332 331 332 334 337 337 338 346 349 350 350 353 357 358 361 358 355 353 353 350 348 347 346 345 345 342 339 340 339 339 345 355 355 353 352 353 350 352 351 350 346
328 330 330 332 331 333 335 335 337 341 346 351 351 351 354 355 356 357 355 354 356 351 347 346 344 345 344 344 340 340 341 340 346 351 354 353 353 350 350 349 349 348 347
328 330 331 331 333 333 333 333 333 335 337 341 347 350 353 354 354 355 354 354 356 351 348 346 348 345 345 343 339 340 341 341 346 351 352 352 350 351 350 351 349 346 345
328 329 330 330 332 331 330 328 329 330 335 336 339 348 351 354 355 355 352 354 355 353 351 350 345 345 342 346 342 341 339 344 350 349 351 350 350 350 350 350 348 346 343
325 328 329 329 331 331 330 331 330 330 330 333 336 342 349 351 353 352 353 353 353 351 353 351 349 342 342 346 340 338 331 337 345 348 349 347 349 348 347 348 347 346 344
323 325 327 329 330 331 332 330 331 332 331 329 330 332 337 345 351 351 353 354 354 353 349 353 350 348 339 343 351 342 332 329 339 348 345 344 344 343 344 344 343 342 342
321 324 327 328 329 329 331 330 330 327 326 329 330 331 335 339 342 348 351 351 356 350 353 353 352 352 351 338 345 345 347 345 336 337 339 337 338 339 342 340 339 338 336
320 321 325 328 328 329 329 328 327 328 328 330 330 334 337 337 338 342 348 352 354 351 354 354 354 353 348 343 338 341 350 344 344 337 330 329 332 334 336 336 335 332 331
319 320 323 326 327 328 325 324 325 324 325 325 327 329 330 331 333 341 342 350 353 353 353 352 355 354 350 349 343 345 340 338 337 336 332 338 334 330 329 329 328 328 328
Wind_Speed
7 13 9 9 11 12 12 13 16 16 15 15 16 16 16 15 15 14 13 13 11 11 10 9 9 8 8 8 7 6 6 7 8 8 8 9 9 8 7 4 3 12 8
12 14 11 10 12 12 11 13 14 15 15 16 16 15 15 15 14 14 13 12 12 11 10 10 8 7 7 7 6 5 6 7 8 7 8 9 8 8 8 6 10 11 8
12 13 14 10 12 13 11 11 13 15 15 16 15 14 15 14 14 13 12 11 12 12 10 9 8 7 6 6 6 5 5 6 8 8 9 8 11 8 8 7 8 8 8
11 11 13 11 11 13 13 11 11 13 14 14 14 14 14 14 13 12 11 11 11 11 11 10 9 8 6 6 6 6 5 6 8 8 11 3 8 9 8 7 7 7 7
10 11 11 11 11 12 13 12 12 12 13 13 13 12 12 12 13 11 10 10 11 11 10 9 8 7 7 6 6 6 6 6 8 10 6 5 3 12 8 7 9 7 5
11 10 14 9 10 10 12 12 12 11 11 12 13 12 11 11 10 10 10 9 10 10 10 9 7 7 6 6 6 6 6 7 9 13 5 5 7 15 10 7 6 7 6
9 10 13 9 9 9 10 10 10 11 11 11 12 12 12 12 11 10 9 10 10 10 9 9 7 5 5 5 6 6 7 8 12 8 3 4 6 12 10 9 8 7 5
9 8 12 10 8 7 8 9 8 8 9 10 10 11 12 11 11 11 10 10 10 9 9 9 8 6 5 5 6 6 7 9 11 8 7 5 14 12 10 9 8 7 5
7 8 9 12 11 10 9 9 9 9 10 10 10 10 10 11 11 11 11 10 10 9 9 8 8 7 7 6 7 7 8 9 12 5 7 6 18 12 11 10 9 7 5
7 7 8 7 12 11 13 12 11 10 10 10 10 10 10 9 10 10 10 11 11 10 10 9 9 8 8 7 8 8 8 10 13 10 6 2 14 13 12 11 10 8 6
2 5 5 6 8 9 10 13 12 12 11 10 11 11 9 11 13 14 13 9 13 11 11 11 9 8 8 9 10 9 9 9 11 6 5 17 14 14 13 11 10 8 7
2 4 3 3 6 8 7 7 10 11 11 11 12 12 12 13 11 10 11 12 9 11 10 11 11 10 10 10 10 12 8 11 8 7 5 15 14 15 14 13 11 10 8
7 6 7 5 6 9 7 6 6 6 7 8 12 12 11 10 10 9 8 9 10 14 10 13 12 11 13 10 9 8 9 9 6 6 4 16 15 16 15 14 13 11 9
9 9 10 7 6 7 7 6 7 7 7 8 10 13 10 8 9 10 8 11 10 9 11 11 8 11 11 10 11 10 10 9 7 6 4 16 16 16 16 15 14 13 11
10 11 11 10 7 9 8 8 7 8 7 9 9 11 11 11 10 9 10 10 9 10 10 10 10 9 10 12 11 12 12 12 11 7 6 17 15 16 16 17 15 13 12
11 12 12 12 8 9 10 9 9 8 9 9 9 10 12 11 10 10 10 11 11 10 10 10 10 9 10 11 11 12 12 11 12 11 8 10 15 16 16 16 16 14 13
11 12 12 12 10 9 10 10 9 9 9 9 10 12 11 11 12 12 10 10 10 10 12 10 10 9 9 10 11 11 11 13 12 11 9 7 12 13 14 15 16 16 15
11 12 12 11 12 11 10 9 10 9 9 10 10 9 13 13 12 11 10 10 10 10 6 10 10 10 9 10 10 10 11 11 13 11 9 8 7 9 14 14 15 15 16
12 12 13 13 12 13 12 10 10 12 11 9 11 10 12 13 14 12 10 11 10 10 11 9 9 10 9 9 11 11 10 10 11 10 10 10 8 7 7 21 18 15 15
12 11 11 11 12 13 11 10 9 10 10 11 10 12 13 11 14 12 10 12 10 10 11 12 11 10 8 8 10 11 11 11 11 9 9 8 9 10 9 7 11 11 16
12 12 12 12 12 10 9 9 9 9 9 10 11 14 14 13 14 11 10 13 12 12 13 12 9 10 10 10 10 9 11 9 10 9 9 8 9 9 9 8 7 7 10
12 12 13 12 12 11 9 9 9 10 11 11 11 13 13 14 12 11 12 13 13 11 14 14 13 11 11 11 10 11 10 12 11 10 7 7 8 7 8 9 9 8 7
14 13 12 13 12 11 12 10 9 10 11 11 12 12 13 15 12 13 14 15 13 12 12 14 14 16 13 10 13 8 7 12 7 5 7 7 5 8 7 6 6 7 7
15 13 13 12 12 12 12 11 12 12 12 10 11 11 12 14 15 17 15 14 16 13 13 12 13 12 12 11 8 12 15 6 8 7 6 7 7 7 6 6 5 5 6
15 14 13 13 12 12 13 13 12 13 11 10 10 13 13 13 17 17 18 18 17 14 14 14 12 12 12 11 9 10 10 11 11 9 7 7 6 5 5 6 5 6 6
16 15 14 13 13 12 12 13 14 14 15 12 13 13 12 12 12 16 18 16 16 16 16 14 14 14 15 14 12 8 7 11 12 11 13 11 7 7 6 5 6 6 4
Wind_Direction
158 142 150 147 135 131 140 150 150 151 154 158 161 165 165 160 156 157 156 154 151 150 147 147 148 148 140 134 136 148 154 155 140 133 123 119 120 117 108 111 234 79 77
143 140 147 154 136 134 141 149 151 152 156 162 165 168 164 161 159 161 161 156 158 157 152 152 152 152 147 144 157 171 172 161 154 147 141 135 131 127 117 83 31 84 78
143 143 162 157 138 136 141 144 150 151 158 164 167 170 166 163 163 165 162 159 163 161 160 157 158 158 158 164 176 189 187 170 163 163 192 203 126 134 118 106 96 94 83
138 147 157 155 143 137 139 141 148 151 158 164 167 170 169 165 165 168 166 164 166 164 164 165 164 164 171 186 197 200 196 188 180 186 219 172 133 134 130 124 111 107 114
151 155 135 159 148 144 143 142 148 153 156 160 165 173 172 170 168 171 172 169 171 170 170 172 169 172 174 192 209 213 209 202 207 210 245 220 228 133 148 141 148 137 56
153 152 128 156 152 153 153 151 152 156 159 163 168 172 174 174 174 172 177 175 177 179 177 176 178 175 183 197 213 222 225 220 221 219 210 126 262 129 153 155 112 114 114
144 142 151 157 160 167 168 167 164 163 166 171 174 176 176 175 177 178 181 184 184 180 184 178 186 187 192 204 219 228 228 227 243 263 223 234 191 139 156 163 149 142 130
132 147 136 150 162 171 179 183 181 180 177 180 185 185 181 181 182 183 188 194 194 186 184 184 181 196 211 219 230 230 238 245 238 262 266 206 117 147 170 167 162 160 148
138 165 163 172 172 178 186 189 195 192 191 192 194 192 190 191 189 191 193 196 198 192 187 192 184 196 215 224 241 242 243 248 275 256 263 243 135 164 177 174 173 173 167
160 171 181 200 183 195 183 192 200 204 204 202 199 200 201 198 204 202 201 202 201 196 198 200 199 197 211 229 241 249 252 259 256 258 222 149 143 174 185 181 180 178 180
158 176 229 222 205 217 219 174 190 205 212 215 214 210 201 222 209 215 217 215 198 200 203 202 203 205 215 224 229 240 253 245 244 237 257 129 155 182 189 190 185 181 185
319 322 298 263 259 238 238 223 207 207 209 209 214 215 219 223 230 227 221 192 203 216 213 208 202 205 219 241 202 208 237 244 244 251 247 139 167 189 192 191 192 188 190
332 282 308 324 282 282 241 227 229 220 213 214 223 221 222 230 225 221 237 207 222 209 227 202 206 219 225 233 233 236 236 242 249 249 169 149 175 192 196 193 196 192 194
354 349 321 324 294 278 282 236 241 234 222 223 214 215 228 220 229 239 227 234 220 224 218 234 223 229 229 230 248 250 244 249 247 251 180 155 178 193 198 194 200 196 196
360 356 343 331 318 299 261 268 257 265 243 243 230 220 228 229 228 229 239 239 240 229 225 231 231 230 223 232 235 233 242 245 251 257 258 157 182 193 200 197 201 200 199
359 356 348 337 335 306 275 258 269 256 262 246 250 234 224 238 240 233 235 237 237 237 239 229 230 232 230 240 230 239 244 243 235 250 237 161 181 196 200 199 203 204 204
354 353 347 333 337 329 300 275 258 258 256 252 247 240 236 229 237 250 238 240 240 245 238 239 240 233 248 245 244 249 237 238 242 238 236 244 161 196 202 202 204 208 210
350 348 340 338 326 330 315 302 283 269 253 258 252 246 230 233 236 235 244 245 232 236 246 237 230 234 242 249 249 245 235 236 235 232 224 222 226 183 195 213 213 213 214
349 345 338 336 330 324 310 299 286 269 262 242 267 252 242 239 234 223 230 247 239 236 225 229 245 230 236 244 263 249 251 248 237 230 224 214 224 229 209 182 201 213 215
342 339 333 328 328 324 304 289 277 269 257 253 237 258 255 242 241 235 235 249 242 232 233 230 227 230 233 243 253 261 247 242 235 232 217 224 222 216 223 225 188 208 208
339 333 334 328 329 323 308 309 291 279 281 266 251 234 248 258 257 238 234 241 231 241 234 224 226 231 240 232 247 239 255 237 267 243 218 227 218 213 229 218 233 247 184
332 330 326 327 324 319 307 315 294 290 287 289 292 289 251 233 239 236 234 237 238 234 229 227 226 228 221 241 231 237 239 214 217 226 229 227 232 231 217 222 235 239 260
335 330 321 321 317 311 308 296 282 271 255 252 252 251 246 257 238 231 235 238 243 235 237 222 221 221 231 208 224 239 231 245 218 186 212 223 211 234 236 220 234 234 233
335 325 322 313 311 305 309 300 292 287 285 287 291 284 288 277 246 239 233 234 237 242 230 230 224 226 223 234 217 226 255 285 273 168 199 194 214 232 231 224 191 214 215
331 328 320 313 307 308 306 301 299 289 288 293 289 283 274 270 265 253 241 236 233 230 236 234 230 216 216 220 215 223 222 231 245 276 250 174 200 213 207 218 199 203 209
328 331 321 316 305 305 311 305 297 286 288 282 285 291 276 271 259 239 244 240 238 233 231 233 231 220 226 219 220 227 209 213 231 232 243 271 242 168 208 202 203 211 203